RH
11 9 8 8 8 8 7 13 29 30 20 21 21 18 17 17 19 20 20 21 29 32 33 36 35 34 32 31 28 26 24 23 22 22 21 18 18 20 19 19 22 24 29 30 28
16 13 14 14 14 12 12 9 6 11 27 28 20 19 20 18 16 16 18 16 15 18 19 20 21 19 19 17 17 16 14 11 10 9 9 9 10 14 18 20 19 22 28 32 32
41 35 26 19 16 17 17 17 17 8 7 16 30 25 17 20 21 19 18 18 17 15 14 13 12 11 10 9 9 9 8 7 7 6 6 6 6 6 7 11 19 20 21 26 31
53 46 44 44 41 35 52 67 22 22 18 12 13 28 29 19 20 22 22 20 19 17 17 16 14 11 11 10 11 9 10 10 8 7 7 6 6 6 6 6 6 7 13 20 26
63 66 57 50 56 59 57 67 97 56 25 23 19 15 27 32 21 19 24 27 23 22 19 20 19 16 12 12 12 12 12 11 10 10 8 8 7 7 8 7 7 7 8 10 15
60 64 66 69 65 85 67 50 53 97 70 30 28 23 19 34 30 24 22 24 30 28 23 25 27 21 15 14 14 16 12 11 11 10 8 7 7 8 9 8 8 8 9 11 10
53 55 60 63 65 66 64 62 53 46 91 94 66 30 27 21 35 32 26 23 29 32 32 26 27 23 18 21 17 15 14 12 12 13 12 10 11 14 14 11 16 20 21 18 16
47 47 42 36 35 34 45 54 57 56 46 43 88 47 30 16 24 36 36 29 29 36 36 32 27 27 23 20 21 16 13 11 18 20 17 15 24 25 20 19 25 27 23 22 24
28 25 18 11 8 7 7 7 8 13 22 23 32 35 30 23 12 19 40 35 33 38 40 36 33 29 25 25 21 15 17 16 23 26 20 21 23 27 24 22 20 20 21 24 29
18 13 11 10 8 6 6 6 6 6 5 6 11 11 23 19 15 10 25 47 35 36 39 40 35 30 26 24 23 21 22 22 25 27 24 24 24 22 19 22 22 25 29 30 31
19 17 14 12 8 7 7 5 7 6 6 6 5 5 9 9 12 11 9 31 43 36 34 45 37 26 36 34 31 27 24 24 26 23 25 26 22 18 24 24 25 24 24 24 25
10 10 9 9 8 7 7 5 5 6 6 6 5 4 4 4 6 7 8 13 25 46 40 31 31 44 41 37 35 28 26 26 24 26 29 26 21 19 22 24 26 25 24 24 25
8 5 4 3 3 4 4 4 5 5 8 7 6 5 6 6 5 5 7 7 8 44 44 36 40 53 43 39 37 31 24 27 26 28 28 27 23 21 20 24 26 25 24 26 28
2 2 2 2 3 3 3 5 6 7 38 11 17 6 7 8 6 5 5 7 6 15 49 42 43 49 42 38 38 35 35 32 30 29 27 28 23 26 24 26 26 25 25 26 27
2 3 4 6 18 33 23 44 40 39 62 44 34 25 14 14 10 8 7 8 6 6 13 30 48 50 51 43 42 38 39 36 33 32 31 27 27 24 25 25 26 26 26 28 26
4 8 37 82 93 96 100 100 81 100 88 99 70 61 45 24 14 12 9 7 6 6 6 18 47 53 52 52 46 41 41 40 38 33 26 28 26 21 23 25 27 26 26 23 23
48 71 96 100 100 100 100 100 100 99 64 65 57 53 43 40 31 18 14 8 6 5 4 5 34 50 55 56 48 42 41 42 44 35 22 26 24 21 22 25 27 26 25 21 25
96 100 100 100 100 100 93 100 100 99 81 70 70 74 71 47 30 17 14 11 7 6 5 6 23 50 60 57 46 43 41 41 42 36 30 30 24 23 25 26 28 27 25 19 26
99 100 100 100 99 100 97 100 100 73 80 100 78 66 64 60 32 24 20 15 9 7 6 7 22 63 72 65 54 43 42 43 42 39 36 32 27 28 29 28 28 27 24 16 24
100 100 100 98 95 100 100 100 99 100 85 79 72 86 79 100 80 55 37 45 17 10 12 19 56 73 85 71 57 47 44 44 41 39 37 30 27 30 28 30 29 27 23 16 18
100 99 100 96 95 100 98 88 100 100 82 100 100 89 55 73 100 97 96 79 100 86 33 60 88 94 95 84 61 48 42 40 40 39 33 30 27 30 28 30 29 27 25 21 14
100 88 100 100 95 82 77 77 100 100 100 98 82 64 47 78 90 82 77 99 100 100 100 91 100 100 95 92 78 56 44 42 40 37 35 32 29 28 29 31 30 29 28 24 20
100 93 86 89 87 92 86 64 88 100 100 88 100 96 96 77 84 81 88 100 100 100 100 97 100 99 98 100 87 63 45 38 34 36 37 40 33 37 34 33 32 33 31 29 24
83 97 96 96 100 98 85 83 93 87 80 78 83 100 100 100 100 97 100 100 100 96 100 100 95 96 79 68 76 66 50 43 38 35 30 28 33 38 40 40 40 38 34 32 29
97 92 99 100 86 83 100 91 100 98 92 56 86 100 98 100 100 97 100 100 100 100 100 100 82 91 88 90 94 84 70 61 45 38 34 36 35 46 45 44 43 40 39 36 32
90 100 95 87 100 99 86 86 85 78 71 66 87 95 100 90 98 100 100 100 100 100 100 100 74 88 94 98 98 96 81 64 54 44 38 43 54 58 51 44 46 46 41 36 28
90 98 82 86 87 100 97 91 74 67 52 60 100 100 100 98 100 96 100 100 99 100 100 99 99 98 99 100 99 97 83 63 51 47 43 36 54 58 54 54 51 45 39 30 20
Wind_Speed
36 36 36 33 33 32 31 32 32 32 31 35 34 33 34 36 35 35 35 36 36 36 37 39 38 38 38 37 37 38 37 36 36 34 34 36 36 33 31 32 33 34 34 32 32
42 41 40 39 37 37 35 34 33 34 34 32 32 36 34 33 34 34 32 33 34 34 36 38 39 38 38 38 38 38 37 36 36 35 36 39 40 37 35 35 35 35 36 37 36
45 48 47 46 44 43 41 39 37 36 35 36 35 33 35 36 33 34 33 32 33 33 33 35 37 37 37 37 36 34 32 34 34 35 37 39 41 38 38 39 37 39 39 40 39
44 47 49 48 49 49 54 58 44 42 40 39 37 37 35 35 37 34 34 34 33 35 33 35 35 35 34 31 29 29 30 30 32 32 33 36 38 36 36 36 39 42 43 40 41
43 43 44 49 50 50 51 51 57 51 46 44 41 39 39 36 38 37 36 34 35 34 34 34 35 34 33 31 31 30 28 29 31 30 33 34 35 33 31 32 35 37 39 42 44
47 45 42 44 48 48 49 48 51 53 50 47 44 43 40 38 40 39 38 38 36 35 36 34 34 35 35 33 31 30 28 30 29 30 31 32 30 27 24 27 30 32 34 35 38
50 47 46 41 42 46 51 49 49 51 50 54 50 47 45 41 42 41 41 40 38 37 37 37 36 36 36 34 32 31 31 31 26 26 27 23 21 13 26 22 16 15 18 22 27
54 54 52 50 48 44 46 49 48 48 49 52 53 51 46 42 45 44 43 43 41 39 39 39 38 38 37 36 33 31 32 30 24 25 24 24 16 20 18 18 18 17 15 16 17
57 60 60 59 57 55 53 48 50 50 49 48 51 56 47 44 42 46 46 45 44 42 41 42 42 40 38 38 35 34 29 25 26 26 25 24 19 20 19 19 19 19 18 19 21
65 64 65 67 67 65 63 59 57 56 55 54 52 48 49 44 44 44 49 47 47 46 46 45 45 43 40 39 35 30 27 27 28 28 28 26 22 21 17 16 18 19 19 19 21
71 72 75 75 72 74 72 68 65 60 59 55 54 54 54 53 48 47 51 52 49 51 49 47 48 45 35 33 35 35 34 35 32 29 29 27 26 21 19 17 18 19 20 21 24
77 78 81 82 83 82 81 75 67 62 58 56 55 56 56 55 51 52 51 53 52 52 51 51 52 42 39 38 41 43 41 36 32 30 29 29 26 26 21 21 22 20 21 23 25
86 88 87 85 85 86 80 71 63 63 64 62 59 57 57 57 54 51 56 54 54 55 54 52 50 45 44 43 45 45 39 34 35 33 32 32 27 27 24 23 24 22 23 24 24
88 82 79 74 75 71 70 58 59 59 60 74 61 64 62 61 61 56 57 58 55 55 56 56 55 50 50 49 46 44 38 39 38 36 35 34 31 28 25 24 24 25 25 26 27
78 71 63 61 59 57 53 46 47 51 52 60 61 58 62 65 62 58 56 57 56 51 55 56 54 53 52 49 46 43 42 42 40 39 38 37 37 28 28 26 26 26 26 27 28
65 56 43 34 38 34 32 32 39 46 52 45 53 44 47 55 64 62 57 59 60 55 57 58 57 55 53 51 49 48 46 44 41 42 46 38 40 30 29 27 27 25 25 26 29
43 37 26 30 27 28 29 29 37 50 46 50 46 42 36 40 45 51 55 62 63 64 68 65 60 59 56 54 54 52 49 48 46 48 49 38 41 31 31 29 27 25 24 26 26
32 24 24 27 26 20 30 32 44 38 39 39 38 32 30 27 35 40 43 55 64 64 64 61 62 61 58 56 55 53 52 50 48 48 46 39 42 34 31 30 27 25 23 23 21
22 25 23 24 24 37 37 41 40 31 34 32 32 29 29 30 34 38 43 42 53 60 65 64 63 60 55 52 54 54 52 50 49 48 47 44 42 35 31 28 27 26 23 20 17
23 22 19 23 20 29 37 42 40 36 23 35 30 32 26 25 28 29 37 37 45 53 56 59 61 60 59 54 53 54 50 48 49 49 48 45 41 37 30 29 28 27 23 20 16
20 18 17 19 22 31 34 42 43 32 35 26 31 29 30 30 31 31 32 36 33 41 52 55 58 61 60 59 55 53 54 53 52 49 49 46 40 33 32 29 28 28 25 22 19
18 13 14 14 16 26 34 32 42 34 23 39 34 35 32 30 30 30 33 36 31 36 48 54 56 61 59 58 57 53 51 49 49 49 48 44 40 34 31 30 28 29 27 24 21
14 13 14 15 16 16 22 30 40 29 32 27 30 31 28 27 26 28 34 29 30 30 47 51 57 59 62 60 58 55 51 51 50 48 48 45 41 34 31 29 29 29 28 26 24
17 12 14 19 20 17 21 30 32 31 33 28 30 31 29 26 27 29 26 22 25 30 36 45 57 56 60 58 56 58 52 48 48 47 46 45 38 32 32 31 31 29 29 27 26
16 12 17 7 17 19 19 31 17 27 37 34 32 31 25 26 27 31 25 15 22 35 39 45 48 56 55 56 55 52 49 47 47 44 44 37 34 32 34 35 34 30 27 28 27
12 11 12 12 10 8 19 21 27 26 30 38 29 26 26 25 24 23 24 21 15 29 35 43 47 52 56 53 53 53 50 47 48 49 46 38 33 34 36 34 29 28 28 27 27
8 5 10 12 10 8 6 18 27 34 30 36 30 23 28 27 26 26 21 16 14 25 34 33 42 50 53 52 50 53 46 45 47 45 40 40 31 33 34 32 30 28 28 28 27
Wind_Direction
279 278 277 273 273 271 265 264 262 258 254 255 252 250 246 247 247 243 243 244 241 243 243 242 240 239 239 239 239 242 243 245 246 246 247 249 249 245 243 245 245 244 243 243 243
279 276 274 274 272 271 271 268 263 261 259 252 253 254 252 247 245 244 243 242 240 238 242 243 240 239 239 239 240 242 244 245 246 245 244 248 249 246 245 246 247 246 245 243 242
277 277 275 274 273 270 268 267 267 263 259 256 251 248 252 252 247 243 242 241 241 236 239 242 243 240 239 240 241 242 245 246 245 245 244 247 250 249 245 245 245 247 247 247 245
278 274 275 274 271 269 269 266 265 266 263 260 255 250 244 247 250 245 244 245 242 241 236 241 241 241 237 238 240 240 242 242 244 244 245 246 249 249 248 246 247 247 247 248 248
289 281 274 274 273 271 268 269 267 262 264 260 259 254 249 243 244 245 244 243 244 242 236 237 239 237 234 233 236 239 240 243 244 243 243 243 247 250 251 250 249 249 248 247 247
297 291 285 277 273 271 268 269 270 265 259 262 259 256 253 245 245 243 240 242 241 241 237 232 237 239 236 234 234 236 237 240 240 239 242 243 247 250 252 249 248 251 253 253 251
299 294 289 284 275 274 273 269 267 267 270 257 262 259 254 247 245 243 240 237 239 238 238 234 231 238 239 235 233 233 234 234 230 231 236 238 236 229 235 249 252 243 246 253 255
299 297 296 294 290 279 274 275 272 268 266 263 260 261 256 249 248 242 238 238 233 236 236 234 232 232 235 237 235 236 234 230 224 230 234 235 225 234 244 247 246 246 249 255 258
299 299 297 296 292 287 284 275 273 272 269 262 257 260 255 251 246 248 239 237 236 232 234 235 233 232 231 234 235 232 233 225 224 232 237 239 228 242 242 245 249 250 249 251 256
302 298 295 295 293 290 286 279 274 273 269 266 263 259 258 255 250 246 243 235 236 234 231 233 234 233 230 231 237 235 232 229 233 236 241 241 236 239 238 240 247 257 261 260 257
300 298 296 294 290 288 285 281 275 270 267 263 259 257 255 255 248 245 242 238 234 236 233 233 234 232 234 234 233 230 229 227 230 234 240 238 238 235 235 244 254 262 270 271 269
297 293 291 287 285 283 281 279 276 270 260 253 253 254 254 254 247 246 242 235 236 234 233 232 234 234 231 225 228 226 226 227 230 234 237 240 237 239 239 250 255 265 273 272 273
296 293 289 284 280 278 276 273 267 263 261 252 244 248 243 246 246 239 240 237 233 230 232 232 232 232 229 227 228 229 229 230 231 231 235 239 236 244 244 251 259 269 274 275 273
295 290 286 281 275 273 270 264 258 256 252 259 245 242 237 238 239 235 235 235 232 229 231 231 230 225 226 226 228 229 226 227 229 230 235 238 238 244 249 251 265 272 276 274 274
296 290 283 276 271 268 267 261 250 245 251 254 254 242 236 234 240 235 238 238 232 232 233 233 231 227 227 226 228 227 226 225 227 231 234 236 244 236 252 262 266 272 278 278 279
296 293 285 270 258 254 250 251 239 237 235 241 251 249 237 235 234 234 233 236 236 238 232 230 229 227 225 225 226 225 225 227 227 231 236 235 244 240 250 257 267 272 275 280 284
296 291 283 261 254 230 237 235 242 242 238 241 247 253 247 236 236 237 235 233 234 234 232 232 228 226 223 223 224 224 223 226 227 228 236 235 243 245 247 254 265 269 271 284 284
289 284 269 256 236 216 225 222 222 239 244 247 246 246 245 237 233 231 229 229 231 232 232 236 230 226 223 223 226 226 224 227 230 233 238 239 244 247 251 257 262 265 270 282 282
287 276 268 268 245 212 222 226 225 241 238 229 243 245 232 230 227 225 227 229 227 230 230 228 226 223 225 226 226 225 222 226 229 235 239 238 243 247 247 252 261 262 266 279 279
286 275 269 262 229 219 227 228 221 224 245 235 230 227 234 229 223 226 227 225 222 224 223 226 223 220 221 222 224 224 224 224 226 232 237 239 241 246 248 251 254 256 259 273 280
284 280 261 259 232 223 224 218 221 219 223 211 214 229 229 234 225 221 220 219 219 222 218 219 221 219 219 219 222 222 223 224 225 229 236 239 241 243 247 245 246 251 253 264 273
293 293 260 253 238 235 238 242 226 207 213 221 226 229 230 224 226 226 224 215 227 218 217 214 222 222 219 218 220 224 221 225 227 231 237 241 242 241 241 242 243 246 251 258 265
301 282 265 232 228 240 241 236 223 219 212 221 215 218 220 224 224 227 218 222 221 227 215 217 221 221 217 216 216 219 222 223 224 225 229 234 235 239 239 240 241 243 248 257 264
278 283 246 225 216 251 249 230 206 219 210 216 216 223 223 223 229 225 213 220 225 219 216 222 222 223 221 220 219 220 221 222 225 227 229 232 234 239 238 239 240 242 246 255 261
279 286 207 249 241 241 240 208 207 207 208 226 216 213 219 224 219 221 214 202 222 211 210 214 223 218 215 217 220 220 221 225 227 229 232 233 235 234 235 235 237 241 249 254 260
277 212 232 244 223 252 233 216 211 209 216 212 208 211 218 221 229 234 232 231 223 211 218 227 219 218 213 216 217 220 222 223 224 225 225 223 221 226 230 235 238 241 247 255 260
246 234 245 231 236 195 294 218 217 226 216 209 198 207 209 217 224 224 222 212 201 217 207 216 214 213 213 215 219 220 219 224 227 228 231 230 220 226 229 233 235 240 247 253 258